Location: DARK SKY Beskydy - Park tmavé oblohy, www.darkskybeskydy.cz
(49.4926°N, 18.5016°E)
Time: 04:25:56
(UTC+02:00)

A-11 Canister half - Pass Details

Date: 29 February 2024
Orbit: 1513 x 1686 km, 47.2° (Epoch: 24 April)

Event Time Altitude Azimuth Distance (km) Brightness Sun altitude
Rises 21:32:12 0° 165° (SSE) 4,912 - -38.1°
Reaches altitude 10° 21:39:39 10° 129° (SE) 3,945 - -39.0°
Maximum altitude 21:41:08 10° 120° (ESE) 3,915 - -39.2°
Drops below altitude 10° 21:42:37 10° 112° (ESE) 3,948 - -39.3°
Sets 21:50:01 0° 77° (ENE) 4,930 - -40.2°
